| time (UTC) | temp F | wind direction | speed MPH | gust MPH | rain 1hr in | rain 24hr in | rain mn in | humidity % | barometer mb |
| 20260502183055 | 0 | 31 | 2.0 | 5.0 | 0.00 | 0.38 | 0.38 | 1014.2 | |
| 20260502181552 | 0 | 31 | 0.0 | 2.0 | 0.00 | 0.38 | 0.38 | 1014.1 | |
| 20260502163032 | 0 | 307 | 0.0 | 0.0 | 0.00 | 0.38 | 0.38 | 1014.2 | |
| 20260502161517 | 0 | 307 | 0.0 | 0.0 | 0.00 | 0.38 | 0.38 | 1014.2 | |
| 20260502151604 | 0 | 307 | 1.0 | 2.0 | 0.01 | 0.38 | 0.38 | 1014.3 | |
| 20260502123009 | 0 | 314 | 2.0 | 9.0 | 0.02 | 0.35 | 0.35 | 1013.9 | |
| 20260502121505 | 0 | 314 | 2.0 | 6.0 | 0.03 | 0.35 | 0.35 | 1013.7 | |
| 20260502114558 | 0 | 315 | 4.0 | 8.0 | 0.03 | 0.33 | 0.33 | 1013.7 | |
| 20260502113054 | 0 | 315 | 0.0 | 6.0 | 0.04 | 0.33 | 0.33 | 1013.6 | |
| 20260502111549 | 0 | 315 | 0.0 | 5.0 | 0.03 | 0.31 | 0.31 | 1013.5 | |
| 20260502110048 | 0 | 315 | 0.0 | 4.0 | 0.04 | 0.31 | 0.31 | 1013.5 | |
| 20260502104538 | 0 | 315 | 1.0 | 8.0 | 0.03 | 0.30 | 0.30 | 1013.3 | |
| 20260502103034 | 0 | 315 | 1.0 | 8.0 | 0.04 | 0.28 | 0.28 | 1013.2 | |
| 20260502101531 | 0 | 315 | 0.0 | 8.0 | 0.04 | 0.28 | 0.28 | 1013.1 | |
| 20260502091512 | 0 | 281 | 0.0 | 7.0 | 0.04 | 0.24 | 0.24 | 1012.5 | |
| 20260502071535 | 0 | 266 | 3.0 | 9.0 | 0.04 | 0.17 | 0.17 | 1010.9 | |
| 20260502070031 | 0 | 5 | 7.0 | 12.0 | 0.04 | 0.15 | 0.15 | 1010.8 | |
| 20260502064531 | 0 | 22 | 6.0 | 9.0 | 0.04 | 0.14 | 0.14 | 1010.8 | |
| 20260502063022 | 0 | 321 | 0.0 | 0.0 | 0.03 | 0.13 | 0.13 | 1010.5 | |
| 20260502061517 | 0 | 321 | 0.0 | 2.0 | 0.03 | 0.13 | 0.13 | 1010.4 | |
| 20260502060013 | 0 | 321 | 0.0 | 5.0 | 0.02 | 0.11 | 0.11 | 1010.3 | |
| 20260502054517 | 0 | 321 | 1.0 | 6.0 | 0.02 | 0.10 | 0.10 | 1010.3 | |
| 20260502053004 | 0 | 321 | 1.0 | 5.0 | 0.02 | 0.10 | 0.10 | 1010.2 | |
| 20260502051501 | 0 | 321 | 1.0 | 5.0 | 0.02 | 0.09 | 0.09 | 1010.0 | |
| 20260502050058 | 0 | 5 | 3.0 | 12.0 | 0.02 | 0.09 | 0.09 | 1010.0 | |
| 20260502044554 | 0 | 5 | 5.0 | 12.0 | 0.02 | 0.09 | 0.09 | 1010.1 | |
| 20260502043057 | 0 | 306 | 7.0 | 11.0 | 0.02 | 0.09 | 0.09 | 1009.9 | |
| 20260502041552 | 0 | 323 | 6.0 | 10.0 | 0.01 | 0.08 | 0.08 | 1010.0 | |
| 20260502040041 | 0 | 19 | 1.0 | 6.0 | 0.01 | 0.08 | 0.08 | 1009.8 | |
| 20260502034538 | 0 | 19 | 4.0 | 6.0 | 0.00 | 0.07 | 0.07 | 1009.9 | |
| 20260502033039 | 0 | 19 | 1.0 | 5.0 | 0.00 | 0.07 | 0.07 | 1009.9 | |
| 20260502031528 | 0 | 19 | 4.0 | 5.0 | 0.00 | 0.07 | 0.07 | 1010.0 | |
| 20260502030030 | 0 | 19 | 0.0 | 0.0 | 0.01 | 0.07 | 0.07 | 1010.0 | |
| 20260502024520 | 0 | 19 | 3.0 | 7.0 | 0.01 | 0.07 | 0.07 | 1010.3 | |
| 20260502023015 | 0 | 13 | 2.0 | 7.0 | 0.01 | 0.07 | 0.07 | 1010.5 | |
| 20260502021511 | 0 | 179 | 3.0 | 6.0 | 0.01 | 0.07 | 0.07 | 1010.5 | |
| 20260502020007 | 0 | 178 | 0.0 | 4.0 | 0.01 | 0.06 | 0.06 | 1010.6 | |
| 20260502014503 | 0 | 178 | 1.0 | 5.0 | 0.02 | 0.06 | 0.06 | 1010.6 | |
| 20260502013059 | 0 | 178 | 4.0 | 8.0 | 0.02 | 0.06 | 0.06 | 1010.7 | |
| 20260502011554 | 0 | 178 | 1.0 | 6.0 | 0.03 | 0.06 | 0.06 | 1010.6 | |
| 20260502010055 | 0 | 178 | 4.0 | 6.0 | 0.04 | 0.06 | 0.06 | 1010.8 | |
| 20260502004558 | 0 | 178 | 4.0 | 9.0 | 0.05 | 0.05 | 0.05 | 1011.0 | |
| 20260502003041 | 0 | 177 | 9.0 | 12.0 | 0.04 | 0.04 | 0.04 | 1011.2 | |
| 20260502001537 | 0 | 189 | 9.0 | 13.0 | 0.03 | 0.03 | 0.03 | 1011.3 | |
| 20260502000033 | 0 | 206 | 4.0 | 12.0 | 0.02 | 0.02 | 0.02 | 1011.3 | |
| 20260501234527 | 0 | 200 | 8.0 | 18.0 | 0.00 | 0.00 | 0.00 | 1011.2 | |
| 20260501233022 | 0 | 188 | 12.0 | 16.0 | 0.00 | 0.00 | 0.00 | 1011.1 | |
| 20260501231520 | 0 | 205 | 10.0 | 25.0 | 0.00 | 0.00 | 0.00 | 1010.9 | |
| 20260501230014 | 0 | 190 | 12.0 | 19.0 | 0.00 | 0.00 | 0.00 | 1010.8 | |
| 20260501224509 | 0 | 191 | 6.0 | 15.0 | 0.00 | 0.00 | 0.00 | 1010.9 | |
| 20260501223009 | 0 | 197 | 5.0 | 23.0 | 0.00 | 0.00 | 0.00 | 1010.5 | |
| 20260501221502 | 0 | 169 | 10.0 | 18.0 | 0.00 | 0.00 | 0.00 | 1010.7 | |
| 20260501220103 | 0 | 195 | 5.0 | 11.0 | 0.00 | 0.00 | 0.00 | 1010.7 | |
| 20260501214552 | 0 | 245 | 6.0 | 12.0 | 0.00 | 0.00 | 0.00 | 1010.8 | |
| 20260501213051 | 0 | 263 | 3.0 | 9.0 | 0.00 | 0.00 | 0.00 | 1010.7 | |
| 20260501211545 | 0 | 217 | 0.0 | 8.0 | 0.00 | 0.00 | 0.00 | 1010.7 | |
| 20260501210044 | 0 | 283 | 1.0 | 13.0 | 0.00 | 0.00 | 0.00 | 1011.0 | |
| 20260501204536 | 0 | 185 | 3.0 | 11.0 | 0.00 | 0.00 | 0.00 | 1011.1 | |
| 20260501203031 | 0 | 221 | 5.0 | 18.0 | 0.00 | 0.00 | 0.00 | 1011.1 | |
| 20260501201532 | 0 | 343 | 7.0 | 18.0 | 0.00 | 0.00 | 0.00 | 1011.2 | |
| 20260501200022 | 0 | 302 | 4.0 | 19.0 | 0.00 | 0.00 | 0.00 | 1011.2 | |
| 20260501194524 | 0 | 159 | 7.0 | 12.0 | 0.00 | 0.00 | 0.00 | 1011.1 | |
| 20260501193017 | 0 | 284 | 4.0 | 18.0 | 0.00 | 0.00 | 0.00 | 1011.3 | |
| 20260501191515 | 0 | 269 | 3.0 | 9.0 | 0.00 | 0.00 | 0.00 | 1011.2 | |
| 20260501190010 | 0 | 317 | 7.0 | 14.0 | 0.00 | 0.00 | 0.00 | 1011.1 |